Fairfield, IL

10:58 PM CST on December 09, 2019 (GMT -0600)
Fairfield Municipal

Weather History for KFWC - October, 2019

Change the Weather History Date:

Monday, October 14, 2019

  Actual Average (WUND) Record (WUND)
Temperature  
Mean Temperature 52 °F -  
Max Temperature 69 °F - - (-1)
Min Temperature 36 °F - - (-1)
Degree Days  
Heating Degree Days 12    
Growing Degree Days 2 (Base 50)    
Moisture  
Dew Point 39 °F    
Average Humidity 72    
Maximum Humidity 100    
Minimum Humidity 24    
Precipitation  
Precipitation 0.00 in - - ()
Sea Level Pressure  
Sea Level Pressure 30.07 in    
Wind  
Wind Speed 0 mph ()    
Max Wind Speed 4 mph    
Max Gust Speed -    
Visibility 9.9 miles    
Events      
Averages and records for this station are not official NWS values.
T = Trace of Precipitation, MM = Missing Value Source: Averaged Metar Reports

Daily Weather History Graph

Daily Weather History Graph

Search for Another Location

Airport or City:

Astronomy

Oct. 14, 2019 Rise Set
Actual Time 7:01 AM CDT 6:17 PM CDT
Civil Twilight 6:34 AM CDT 6:43 PM CDT
Nautical Twilight 6:04 AM CDT 7:14 PM CDT
Astronomical Twilight 5:33 AM CDT 7:45 PM CDT
Moon 7:07 PM CDT (10/14) 7:33 AM CDT (10/14)
Length of Visible Light 12h 09m
Length of Day
11h 15m
Full, 99% of the Moon is Illuminated
Oct 14
Full
Oct 21
Last Quarter
Oct 27
New
Nov 4
First Quarter
Nov 12
Full

Hourly Weather History & Observations

Time (CDT) Temp. Dew Point Humidity Pressure Visibility Wind Dir Wind Speed Gust Speed Precip Events Conditions
12:15 AM 42.3 °F 41.7 °F 98% 30.00 in 10.0 mi Calm Calm - N/A   Clear
12:35 AM 42.3 °F 42.1 °F 99% 30.01 in 10.0 mi Calm Calm - N/A   Clear
12:55 AM 41.7 °F 41.7 °F 100% 30.01 in 10.0 mi Calm Calm - N/A   Clear
1:15 AM 41.0 °F 41.0 °F 100% 30.02 in 10.0 mi Calm Calm - N/A   Clear
1:35 AM 41.4 °F 41.4 °F 100% 30.02 in 10.0 mi Calm Calm - N/A   Clear
1:55 AM 41.5 °F 41.5 °F 100% 30.03 in 10.0 mi Calm Calm - N/A   Clear
2:15 AM 40.8 °F 40.8 °F 100% 30.03 in 10.0 mi Calm Calm - N/A   Clear
2:35 AM 40.1 °F 40.1 °F 100% 30.03 in 10.0 mi Calm Calm - N/A   Clear
2:55 AM 40.3 °F 40.3 °F 100% 30.03 in 10.0 mi Calm Calm - N/A   Clear
3:15 AM 40.6 °F 40.6 °F 100% 30.03 in 10.0 mi Calm Calm - N/A   Clear
3:35 AM 39.2 °F 39.2 °F 100% 30.03 in 10.0 mi Calm Calm - N/A   Clear
3:55 AM 39.6 °F 39.6 °F 100% 30.04 in 10.0 mi Calm Calm - N/A   Clear
4:15 AM 39.0 °F 39.0 °F 100% 30.04 in 10.0 mi Calm Calm - N/A   Clear
4:35 AM 38.3 °F 38.3 °F 100% 30.04 in 10.0 mi Calm Calm - N/A   Clear
4:55 AM 39.2 °F 39.2 °F 100% 30.05 in 10.0 mi Calm Calm - N/A   Clear
5:15 AM 39.2 °F 39.2 °F 100% 30.06 in 10.0 mi Calm Calm - N/A   Clear
5:35 AM 39.7 °F 39.7 °F 100% 30.07 in 10.0 mi Calm Calm - N/A   Clear
5:55 AM 37.2 °F 37.2 °F 100% 30.07 in 7.0 mi Calm Calm - N/A   Clear
6:15 AM 37.4 °F 37.4 °F 100% 30.07 in 10.0 mi Calm Calm - N/A   Clear
6:35 AM 36.5 °F 36.5 °F 100% 30.08 in 10.0 mi Calm Calm - N/A   Clear
6:55 AM 36.3 °F 36.3 °F 100% 30.08 in 10.0 mi Calm Calm - N/A   Clear
7:15 AM 36.5 °F 36.5 °F 100% 30.08 in 10.0 mi Calm Calm - N/A   Clear
7:35 AM 38.8 °F 38.8 °F 100% 30.09 in 10.0 mi Calm Calm - N/A   Clear
7:55 AM 40.5 °F 40.5 °F 100% 30.09 in 10.0 mi Calm Calm - N/A   Clear
8:15 AM 43.3 °F 43.3 °F 100% 30.11 in 10.0 mi Calm Calm - N/A   Clear
8:35 AM 45.5 °F 44.1 °F 95% 30.12 in 10.0 mi Calm Calm - N/A   Clear
8:55 AM 48.4 °F 44.2 °F 86% 30.12 in 10.0 mi Calm Calm - N/A   Clear
9:15 AM 50.2 °F 43.7 °F 78% 30.13 in 10.0 mi Calm Calm - N/A   Clear
9:35 AM 52.3 °F 44.6 °F 75% 30.13 in 10.0 mi Calm Calm - N/A   Clear
9:55 AM 54.7 °F 43.9 °F 67% 30.13 in 10.0 mi Calm Calm - N/A   Clear
10:15 AM 57.4 °F 43.5 °F 60% 30.13 in 10.0 mi Calm Calm - N/A   Clear
10:35 AM 59.5 °F 42.1 °F 52% 30.13 in 10.0 mi Calm Calm - N/A   Clear
10:55 AM 61.7 °F 40.5 °F 46% 30.14 in 7.0 mi Calm Calm - N/A   Clear
11:15 AM 63.7 °F 39.6 °F 41% 30.14 in 10.0 mi Calm Calm - N/A   Clear
11:35 AM 63.9 °F 32.4 °F 31% 30.13 in 10.0 mi Calm Calm - N/A   Clear
11:55 AM 65.1 °F 30.7 °F 28% 30.13 in 10.0 mi Calm Calm - N/A   Clear
12:15 PM 64.9 °F 32.0 °F 29% 30.12 in 10.0 mi Calm Calm - N/A   Clear
12:35 PM 66.6 °F 30.6 °F 26% 30.11 in 10.0 mi Calm Calm - N/A   Clear
12:55 PM 65.7 °F 30.4 °F 27% 30.11 in 10.0 mi Calm Calm - N/A   Clear
1:15 PM 67.3 °F 31.1 °F 26% 30.10 in 10.0 mi SW 3.5 mph - N/A   Clear
1:35 PM 67.5 °F 30.6 °F 25% 30.09 in 10.0 mi Calm Calm - N/A   Clear
1:55 PM 67.8 °F 30.0 °F 24% 30.09 in 10.0 mi Calm Calm - N/A   Clear
2:15 PM 67.8 °F 29.7 °F 24% 30.08 in 10.0 mi Calm Calm - N/A   Clear
2:35 PM 68.4 °F 29.7 °F 24% 30.07 in 10.0 mi Calm Calm - N/A   Clear
2:55 PM 68.5 °F 30.2 °F 24% 30.06 in 10.0 mi Calm Calm - N/A   Clear
3:15 PM 68.9 °F 30.2 °F 24% 30.07 in 10.0 mi Calm Calm - N/A   Clear
3:35 PM 69.8 °F 30.9 °F 24% 30.07 in 10.0 mi Calm Calm - N/A   Clear
3:55 PM 69.8 °F 32.0 °F 25% 30.06 in 10.0 mi Calm Calm - N/A   Clear
4:15 PM 69.3 °F 31.6 °F 25% 30.06 in 10.0 mi Calm Calm - N/A   Clear
4:35 PM 68.9 °F 32.0 °F 25% 30.06 in 10.0 mi Calm Calm - N/A   Clear
4:55 PM 68.9 °F 31.6 °F 25% 30.06 in 10.0 mi Calm Calm - N/A   Clear
5:15 PM 68.2 °F 33.6 °F 28% 30.06 in 10.0 mi Calm Calm - N/A   Clear
5:35 PM 64.0 °F 35.6 °F 35% 30.05 in 10.0 mi Calm Calm - N/A   Clear
5:55 PM 59.5 °F 37.4 °F 44% 30.05 in 10.0 mi Calm Calm - N/A   Clear
6:15 PM 55.0 °F 42.1 °F 62% 30.04 in 10.0 mi Calm Calm - N/A   Clear
6:35 PM 52.3 °F 44.1 °F 73% 30.05 in 10.0 mi Calm Calm - N/A   Clear
6:55 PM 50.7 °F 45.5 °F 82% 30.06 in 10.0 mi Calm Calm - N/A   Clear
7:15 PM 48.4 °F 45.7 °F 90% 30.06 in 10.0 mi Calm Calm - N/A   Clear
7:35 PM 49.1 °F 45.5 °F 87% 30.05 in 10.0 mi Calm Calm - N/A   Clear
8:15 PM 48.0 °F 44.8 °F 89% 30.05 in 10.0 mi Calm Calm - N/A   Clear
8:35 PM 48.6 °F 45.1 °F 88% 30.06 in 10.0 mi Calm Calm - N/A   Clear
8:55 PM 47.8 °F 44.8 °F 89% 30.06 in 10.0 mi Calm Calm - N/A   Clear
9:15 PM 46.4 °F 44.4 °F 93% 30.06 in 10.0 mi Calm Calm - N/A   Clear
9:35 PM 46.6 °F 43.7 °F 90% 30.05 in 10.0 mi Calm Calm - N/A   Clear
9:55 PM 46.8 °F 43.9 °F 90% 30.05 in 10.0 mi Calm Calm - N/A   Clear
10:15 PM 46.0 °F 43.9 °F 92% 30.05 in 10.0 mi Calm Calm - N/A   Clear
10:35 PM 45.7 °F 43.9 °F 93% 30.05 in 10.0 mi Calm Calm - N/A   Clear
10:55 PM 46.2 °F 42.6 °F 87% 30.05 in 10.0 mi Calm Calm - N/A   Clear
11:15 PM 46.6 °F 43.7 °F 90% 30.05 in 10.0 mi Calm Calm - N/A   Clear
11:35 PM 46.6 °F 44.2 °F 92% 30.05 in 10.0 mi Calm Calm - N/A   Clear
11:55 PM 46.2 °F 44.2 °F 93% 30.05 in 10.0 mi Calm Calm - N/A   Clear